STARLINK-32694 (62494 NORAD) Tracking and Keplerian Element Data

This shows tracking and keplerian element data for the satellite.

Feedback or suggestion? Click here.




ElementValue
Catalog62494
NameSTARLINK-32694
Epoch Orbit560
Epoch Day34.69434984
Epoch Year2025
RAAN26.335
Inclination43.0016
Eccentricity0.0023184
Argument of Perigee291.6288
Mean Anonmoly68.2103
Mean Motion15.51408558
Decay Rate0.00213265
L11 62494U 25003H 25034.69434984 .00213265 00000+0 34052-2 0 9990
L22 62494 43.0016 26.3350 0023184 291.6288 68.2103 15.51408558 5607



Live tracking and technical data element details for STARLINK-32694 (NORAD 62494). STARLINK-32694 can be tracked NOW for your location showing map with azimuth and elevation plus other details from your city location.







IsCatalogInMostPopularTable: catalog: 62494, numindb: 15
Update: records affected: 1



GetName: 62494 STARLINK-32694

Hit Count: updated at: Sun, 18 May 2025 22:28:52 GMT